Change the Weather History Date:

Sunday, December 29, 2013

  Actual Average Record
Temperature  
Mean Temperature 41 °F -  
Max Temperature 46 °F 41 °F 53 °F (2002)
Min Temperature 36 °F 33 °F 15 °F (1996)
Degree Days  
Heating Degree Days 24    
Moisture  
Dew Point 39 °F    
Average Humidity 87    
Maximum Humidity 100    
Minimum Humidity 67    
Precipitation  
Precipitation 0.00 in - - ()
Sea Level Pressure  
Sea Level Pressure 29.93 in    
Wind  
Wind Speed 9 mph ()    
Max Wind Speed 14 mph    
Max Gust Speed -    
Visibility 8.0 miles    
Events Rain    
Averages and records for this station are not official NWS values.
T = Trace of Precipitation, MM = Missing Value Source: Averaged Metar Reports

Daily Weather History Graph

Daily Weather History Graph

Search for Another Location

Airport or City:

Trip Planner

Search our weather history database for the weather conditions in past years. The results will help you decide how hot, cold, wet, or windy it might be!

Date:

Astronomy

Dec. 29, 2013 Rise Set
Actual Time 8:50 AM CET 4:38 PM CET
Civil Twilight 8:09 AM CET 5:19 PM CET
Nautical Twilight 7:25 AM CET 6:02 PM CET
Astronomical Twilight 6:44 AM CET 6:44 PM CET
Moon 5:03 AM CET (12/29) 2:14 PM CET (12/29)
Length of Visible Light 9h 09m
Length of Day
7h 48m
Waning Crescent, 13% of the Moon is Illuminated
Dec 29
Waning Crescent
Jan 1
New
Jan 8
First Quarter
Jan 16
Full
Jan 24
Last Quarter

Hourly Weather History & Observations

Time (CET) Temp. Windchill Dew Point Humidity Pressure Visibility Wind Dir Wind Speed Gust Speed Precip Events Conditions
12:00 AM 41 °F - 38 °F 85% 29.68 in 12 mi SSW 8.9 mph - -  
12:25 AM 39.2 °F 33.0 °F 37.4 °F 93% 29.65 in 6.2 mi SSW 9.2 mph - N/A   Unknown
12:55 AM 41.0 °F 35.8 °F 37.4 °F 87% 29.68 in 6.2 mi SSW 8.1 mph - N/A   Mostly Cloudy
1:00 AM 41 °F - 38 °F 85% 29.69 in 16 mi SSW 8.9 mph - -   Partly Cloudy
1:25 AM 41.0 °F 34.7 °F 39.2 °F 93% 29.68 in 6.2 mi SSW 10.4 mph - N/A   Scattered Clouds
1:55 AM 42.8 °F 36.2 °F 39.2 °F 87% 29.68 in 6.2 mi SW 12.7 mph - N/A Rain Drizzle
2:00 AM 42 °F - 40 °F 89% 29.70 in 7 mi SW 11.2 mph - - Rain Light Rain Showers
2:25 AM 42.8 °F 36.6 °F 41.0 °F 93% 29.68 in 3.7 mi SW 11.5 mph - N/A Rain Heavy Drizzle
2:55 AM 41.0 °F 34.3 °F 39.2 °F 93% 29.71 in 6.2 mi WSW 11.5 mph - N/A Rain Light Rain
3:00 AM 41 °F - 39 °F 91% 29.73 in 9 mi WSW 8.9 mph - - Rain Rain
3:25 AM 41.0 °F 35.2 °F 39.2 °F 93% 29.71 in 6.2 mi SW 9.2 mph - N/A Rain Light Rain
3:55 AM 41.0 °F 34.3 °F 39.2 °F 93% 29.71 in 6.2 mi SSW 11.5 mph - N/A Rain Light Rain
4:00 AM 41 °F - 39 °F 91% 29.73 in 25 mi SSW 11.2 mph - - Rain Rain
4:25 AM 41.0 °F 35.8 °F 39.2 °F 93% 29.74 in 6.2 mi SSW 8.1 mph - N/A   Overcast
4:55 AM 41.0 °F 35.8 °F 41.0 °F 100% 29.74 in 6.2 mi SSW 8.1 mph - N/A   Partly Cloudy
5:00 AM 42 °F - 40 °F 89% 29.76 in 7 mi SW 8.9 mph - -   Partly Cloudy
5:25 AM 41.0 °F 34.7 °F 39.2 °F 93% 29.74 in 6.2 mi SSW 10.4 mph - N/A   Overcast
5:55 AM 41.0 °F 34.7 °F 39.2 °F 93% 29.77 in 6.2 mi SW 10.4 mph - N/A   Scattered Clouds
6:00 AM 41 °F - 39 °F 91% 29.78 in 7 mi SW 11.2 mph - -   Partly Cloudy
6:25 AM 41.0 °F 34.7 °F 39.2 °F 93% 29.77 in 6.2 mi SW 10.4 mph - N/A   Unknown
6:55 AM 41.0 °F 35.2 °F 39.2 °F 93% 29.80 in 6.2 mi SSW 9.2 mph - N/A   Partly Cloudy
7:00 AM 40 °F - 39 °F 94% 29.82 in 11 mi SW 8.9 mph - -   Partly Cloudy
7:25 AM 39.2 °F 33.0 °F 39.2 °F 100% 29.80 in 6.2 mi SW 9.2 mph - N/A   Unknown
7:55 AM 39.2 °F 33.6 °F 37.4 °F 93% 29.83 in 6.2 mi SSW 8.1 mph - N/A   Unknown
8:00 AM 40 °F - 38 °F 92% 29.85 in 11 mi SSW 8.9 mph - -  
8:25 AM 37.4 °F 31.4 °F 37.4 °F 100% 29.83 in 6.2 mi SSW 8.1 mph - N/A   Unknown
8:55 AM 39.2 °F 34.2 °F 37.4 °F 93% 29.86 in 6.2 mi SSW 6.9 mph - N/A   Unknown
9:00 AM 36 °F - 36 °F 98% 29.87 in 8 mi SSW 6.7 mph - -   Partly Cloudy
9:25 AM 37.4 °F 32.1 °F 37.4 °F 100% 29.86 in 6.2 mi SSW 6.9 mph - N/A   Unknown
9:55 AM 41.0 °F 36.4 °F 39.2 °F 93% 29.89 in 6.2 mi SSW 6.9 mph - N/A   Unknown
10:00 AM 41 °F - 40 °F 93% 29.91 in 10 mi SW 6.7 mph - -   Mostly Cloudy
10:25 AM 42.8 °F 38.0 °F 41.0 °F 93% 29.89 in 6.2 mi SW 8.1 mph - N/A   Unknown
10:55 AM 44.6 °F 39.7 °F 41.0 °F 87% 29.92 in 6.2 mi SW 9.2 mph - N/A   Unknown
11:00 AM 44 °F - 41 °F 84% 29.94 in 14 mi SW 8.9 mph - -   Scattered Clouds
11:25 AM 44.6 °F 39.7 °F 41.0 °F 87% 29.95 in 6.2 mi SW 9.2 mph - N/A   Mostly Cloudy
11:55 AM 44.6 °F 39.2 °F 41.0 °F 87% 29.95 in 6.2 mi WSW 10.4 mph - N/A   Partly Cloudy
12:00 PM 44 °F - 40 °F 79% 29.96 in 15 mi WSW 8.9 mph - -  
12:25 PM 46.4 °F 41.5 °F 39.2 °F 76% 29.95 in 6.2 mi WSW 10.4 mph - N/A   Unknown
12:55 PM 46.4 °F 40.7 °F 41.0 °F 81% 29.98 in 6.2 mi WSW 12.7 mph - N/A   Partly Cloudy
1:00 PM 47 °F - 40 °F 70% 29.98 in 14 mi WSW 11.2 mph - -   Partly Cloudy
1:25 PM 46.4 °F 40.4 °F 39.2 °F 76% 29.98 in 6.2 mi WSW 13.8 mph - N/A   Mostly Cloudy
1:55 PM 44.6 °F 38.1 °F 39.2 °F 81% 29.98 in 6.2 mi WSW 13.8 mph - N/A   Partly Cloudy
2:00 PM 45 °F - 39 °F 72% 29.99 in 15 mi WSW 11.2 mph - -  
2:25 PM 46.4 °F 40.4 °F 39.2 °F 76% 29.98 in 6.2 mi WSW 13.8 mph - N/A   Partly Cloudy
2:55 PM 46.4 °F 40.4 °F 39.2 °F 76% 30.01 in 6.2 mi WSW 13.8 mph - N/A   Unknown
3:00 PM 46 °F - 38 °F 67% 30.02 in 17 mi WSW 13.4 mph - -   Scattered Clouds
3:25 PM 44.6 °F 38.8 °F 37.4 °F 76% 30.01 in 6.2 mi WSW 11.5 mph - N/A   Mostly Cloudy
3:55 PM 44.6 °F 39.2 °F 37.4 °F 76% 30.04 in 6.2 mi WSW 10.4 mph - N/A   Unknown
4:00 PM 44 °F - 38 °F 71% 30.05 in 16 mi WSW 11.2 mph - -  
4:25 PM 42.8 °F 36.6 °F 37.4 °F 81% 30.04 in 6.2 mi WSW 11.5 mph - N/A   Unknown
4:55 PM 42.8 °F 36.6 °F 37.4 °F 81% 30.06 in 6.2 mi SW 11.5 mph - N/A   Unknown
5:00 PM 42 °F - 38 °F 80% 30.07 in 13 mi SW 11.2 mph - -  
5:25 PM 42.8 °F 36.6 °F 37.4 °F 81% 30.06 in 6.2 mi SW 11.5 mph - N/A   Unknown
5:55 PM 41.0 °F 35.2 °F 37.4 °F 87% 30.09 in 6.2 mi SW 9.2 mph - N/A   Unknown
6:00 PM 41 °F - 38 °F 85% 30.10 in 11 mi SW 11.2 mph - -  
6:25 PM 41.0 °F 34.3 °F 37.4 °F 87% 30.09 in 6.2 mi SW 11.5 mph - N/A   Partly Cloudy
6:55 PM 41.0 °F 33.9 °F 39.2 °F 93% 30.09 in 6.2 mi SW 12.7 mph - N/A   Unknown
7:00 PM 42 °F - 38 °F 81% 30.12 in 12 mi SW 11.2 mph - -   Partly Cloudy
7:25 PM 42.8 °F 36.6 °F 39.2 °F 87% 30.12 in 6.2 mi SW 11.5 mph - N/A   Unknown
7:55 PM 41.0 °F 33.5 °F 39.2 °F 93% 30.12 in 6.2 mi SW 13.8 mph - N/A   Unknown
8:00 PM 42 °F - 38 °F 82% 30.14 in 13 mi SW 13.4 mph - -  
8:25 PM 41.0 °F 34.3 °F 37.4 °F 87% 30.12 in 6.2 mi SSW 11.5 mph - N/A   Unknown
8:55 PM 41.0 °F 35.2 °F 37.4 °F 87% 30.12 in 6.2 mi SSW 9.2 mph - N/A   Unknown
9:00 PM 41 °F - 37 °F 82% 30.15 in 12 mi SSW 8.9 mph - -  
9:25 PM 41.0 °F 35.2 °F 37.4 °F 87% 30.12 in 6.2 mi SSW 9.2 mph - N/A   Unknown
9:55 PM 39.2 °F 33.0 °F 37.4 °F 93% 30.12 in 6.2 mi SSW 9.2 mph - N/A   Unknown
10:00 PM 40 °F - 36 °F 82% 30.16 in 12 mi SSW 8.9 mph - -  
10:25 PM 39.2 °F 33.0 °F 37.4 °F 93% 30.15 in 6.2 mi SSW 9.2 mph - N/A   Unknown
10:55 PM 39.2 °F 33.0 °F 35.6 °F 87% 30.15 in 6.2 mi SSW 9.2 mph - N/A   Unknown
11:00 PM 39 °F - 36 °F 84% 30.17 in 11 mi South 8.9 mph - -  
11:25 PM 39.2 °F 32.5 °F 35.6 °F 87% 30.15 in 6.2 mi South 10.4 mph - N/A   Unknown
11:55 PM 39.2 °F 32.5 °F 35.6 °F 87% 30.15 in 6.2 mi SSW 10.4 mph - N/A   Unknown